Regional Weather Roundup
Issued by NWS

Home | Current Version | Previous Version | Graphics & Text | Print | Product List | Glossary On
Versions: 1 2 3 4 5 6 7 8 9 10 11 12 13 14 15 16 17 18 19 20 21 22 23 24 25 26 27 28 29 30 31 32 33 34 35 36 37 38 39 40 41 42 43 44 45 46 47 48 49 50
000
ASUS43 KOAX 211702
RWRNE

WEATHER ROUNDUP FOR NEBRASKA
NATIONAL WEATHER SERVICE OMAHA NE
1200 PM CDT MON MAY 21 2018

NOTES: SATELLITE DATA IS BEING USED TO AUGMENT CLOUD COVER ABOVE
       12000 FEET.
       "FAIR" INDICATES FEW OR NO CLOUDS BELOW 12,000 FEET WITH NO
       SIGNIFICANT WEATHER AND/OR OBSTRUCTIONS TO VISIBILITY.


NEZ001>004-019>022-054>056-211800-
NEBRASKA PANHANDLE

CITY           SKY/WX    TMP DP  RH WIND       PRES   REMARKS
SCOTTSBLUFF    SUNNY     62  54  74 E3        30.00F
ALLIANCE       MOSUNNY   62  52  69 S16       30.00S
CHADRON        SUNNY     66  53  63 S6        29.96F
GORDON         FAIR      66  51  58 S9        29.99S
KIMBALL        MOSUNNY   58  51  80 CALM      30.02F
SIDNEY         CLOUDY    60  51  72 SE9       30.03S
$$

NEZ057>060-069>072-079>082-211800-
SOUTHWEST NEBRASKA

CITY           SKY/WX    TMP DP  RH WIND       PRES   REMARKS
NORTH PLATTE   SUNNY     68  54  60 SW15G25   30.03F
IMPERIAL       MOSUNNY   64  53  67 S20G29    30.03F
LEXINGTON      SUNNY     65  58  76 S10       30.06S
MCCOOK         SUNNY     68  54  60 S16G24    30.04F
OGALLALA       CLOUDY    63  54  72 SW16      30.03S
$$

NEZ005>010-023>029-035>040-094-211800-
NORTH CENTRAL NEBRASKA

CITY           SKY/WX    TMP DP  RH WIND       PRES   REMARKS
VALENTINE      SUNNY     69  47  45 E5        30.00F
AINSWORTH      SUNNY     66  50  55 SE5       30.02F
BROKEN BOW     SUNNY     67  55  65 S12       30.04S
O`NEILL        MOSUNNY   67  53  61 S5        30.04S
ORD            SUNNY     63  55  75 CALM      30.03F
THEDFORD       SUNNY     69  50  49 S10       30.02F
$$

NEZ041-046>049-061>064-073>077-083>087-211800-
SOUTH CENTRAL NEBRASKA

CITY           SKY/WX    TMP DP  RH WIND       PRES   REMARKS
GRAND ISLAND   SUNNY     66  54  65 VRB5      30.07F
AURORA         MOSUNNY   64  56  74 CALM      30.07F
HASTINGS       MOSUNNY   63  55  75 S6        30.08F
HEBRON         MOSUNNY   67  53  61 S3        30.08S
HOLDREGE       MOSUNNY   57  57 100 S12       30.07F
KEARNEY        PTSUNNY   64  56  75 S9        30.07S
YORK             N/A     63  63 100 W7        30.07F
$$

NEZ011>018-030>034-042>045-211800-
NORTHEAST NEBRASKA

CITY           SKY/WX    TMP DP  RH WIND       PRES   REMARKS
NORFOLK        MOSUNNY   65  54  67 W7        30.04S
ALBION         MOSUNNY   67  54  63 SW7       30.05S
BLAIR          CLOUDY    60  57  87 W8        30.05S
COLUMBUS       PTSUNNY   66  55  67 SW7       30.06F
FREMONT        CLOUDY    63  57  81 W9        30.06S
TEKAMAH        CLOUDY    61  57  87 W6        30.04S
WAYNE          CLOUDY    62  60  92 CALM      30.04F
$$

NEZ050>053-065>068-078-088>093-211800-
SOUTHEAST NEBRASKA

CITY           SKY/WX    TMP DP  RH WIND       PRES   REMARKS
LINCOLN        PTSUNNY   66  54  65 W8        30.08S
OMAHA EPPLEY   CLOUDY    62  56  80 W8        30.05S
BEATRICE       PTSUNNY   67  56  69 NW5       30.08S
FALLS CITY     MOSUNNY   68  55  63 MISG      30.05F
NEBRASKA CITY  PTSUNNY   66  59  80 W9        30.07R
PLATTSMOUTH    CLOUDY    60  56  86 W8        30.06S
$$

NEZ044-045-051>053-067-211800-
OMAHA AREA

CITY           SKY/WX    TMP DP  RH WIND       PRES   REMARKS
OMAHA EPPLEY   CLOUDY    62  56  80 W8        30.05S
BLAIR          CLOUDY    60  57  87 W8        30.05S
FREMONT        CLOUDY    63  57  81 W9        30.06S
MILLARD        CLOUDY    63  57  81 W7        30.06S
OFFUTT AFB     CLOUDY    61  57  85 NW6       30.05R
PLATTSMOUTH    CLOUDY    60  56  86 W8        30.06S
WAHOO          CLOUDY    63  54  74 W3        30.07R
$$




USA.gov is the U.S. government's official web portal to all federal, state and local government web resources and services.